Location: Casco Millpond
(44.5581°N, 87.6111°W)
Time: 09:17:10
(UTC+00:00)

BREEZE-M DEB (TANK) - Pass Details

Date: 16 January 2026
Orbit: 317 x 11665 km, 49.7° (Epoch: 10 February)

Event Time Altitude Azimuth Distance (km) Brightness Sun altitude
Rises 23:11:49 0° 258° (WSW) 2,991 8.0 -6.3°
Reaches altitude 10° 23:13:18 10° 261° (W) 2,401 7.0 -6.5°
Maximum altitude 23:18:35 75° 347° (NNW) 1,564 4.4 -7.4°
Enters shadow 23:38:21 11° 73° (ENE) 8,105 7.3 -10.7°
